Theta_e
317 318 318 320 321 322 323 324 325 326 326 326 326 326 325 323 321 321 320 320 320 320 320 320 323 325 325 332 346 354 358 357 357 354 354 354 354 355 356 355 354 353 353 352
320 319 319 318 319 321 321 323 325 326 327 326 325 325 325 325 324 322 321 320 320 321 321 320 321 324 324 325 327 338 346 351 345 350 350 350 351 353 353 353 353 353 353 351
321 321 320 319 319 319 320 322 324 325 325 325 324 324 324 325 324 323 323 322 321 321 321 321 321 324 324 325 326 319 322 338 332 346 349 352 351 352 355 353 355 353 352 349
322 321 321 320 320 318 320 320 322 324 325 324 324 325 324 324 324 324 323 322 322 322 322 321 321 321 324 325 327 318 318 320 336 343 348 349 343 347 348 348 352 352 350 348
321 321 321 321 321 320 319 319 321 322 323 324 323 325 325 324 324 325 325 323 323 322 323 322 321 321 322 323 326 323 318 321 335 342 347 345 343 347 351 349 350 349 349 347
319 317 319 320 322 321 320 320 321 321 321 322 322 323 323 323 324 325 325 324 323 323 323 323 322 321 322 323 325 327 324 322 336 343 350 341 340 348 351 347 349 349 348 346
319 318 318 319 322 322 321 322 325 323 322 323 322 322 322 323 324 324 325 324 324 323 323 323 323 322 322 322 325 328 335 337 346 349 350 344 344 349 345 349 350 348 347 347
321 321 320 319 320 322 322 321 324 325 324 322 321 323 323 323 323 323 324 323 324 324 324 324 323 323 322 322 325 329 341 347 350 347 347 349 347 346 350 348 346 347 345 344
325 322 318 318 320 322 321 321 322 322 323 325 322 323 323 324 323 324 323 324 324 325 326 325 324 323 323 325 326 334 345 347 345 343 348 346 347 347 346 347 345 344 343 342
318 323 320 320 320 321 322 322 322 323 328 330 325 324 324 324 324 324 324 324 331 334 329 326 324 324 326 330 338 345 345 342 344 344 345 346 346 346 344 341 339 338 337 335
315 320 322 321 323 324 321 324 324 324 323 324 323 324 326 325 325 324 324 335 338 335 342 340 333 335 340 344 343 342 341 341 342 345 344 343 342 340 338 335 333 332 332 333
316 317 321 319 320 322 322 321 326 329 328 324 327 333 331 330 331 332 338 338 338 340 341 342 342 341 340 340 340 341 339 339 340 338 337 334 333 331 330 329 327 326 324 324
313 318 321 325 323 322 325 322 322 325 326 327 327 331 330 329 330 332 335 334 336 337 337 337 338 338 337 339 341 340 338 337 335 333 331 330 328 327 326 324 323 322 322 321
313 315 319 321 321 321 324 324 324 324 330 330 328 327 332 332 332 332 330 332 337 337 337 336 337 338 340 338 336 335 334 332 331 329 328 326 325 323 322 320 319 318 317 316
312 315 316 317 317 317 320 325 324 326 327 328 326 326 330 331 331 330 330 332 335 335 335 335 335 334 333 332 331 330 329 327 326 325 324 322 321 320 318 316 315 313 312 312
312 315 313 315 317 319 320 323 324 325 325 325 326 327 322 325 328 329 329 330 331 330 332 330 329 328 327 326 325 324 323 323 322 321 320 319 318 317 315 315 314 312 312 311
312 313 317 319 320 321 325 326 325 325 325 325 326 327 329 329 327 327 328 327 327 326 325 325 324 323 323 322 322 321 321 320 319 318 317 316 315 314 314 314 313 312 310 309
312 314 315 322 329 331 326 325 325 325 324 324 324 329 329 329 326 327 326 325 323 322 322 321 321 321 320 320 319 319 317 317 316 315 314 314 313 313 312 311 310 309 308 308
314 313 317 329 328 328 326 328 325 325 325 324 324 326 328 327 326 325 322 321 320 319 318 317 317 315 316 315 315 314 313 313 312 312 310 309 309 309 308 307 307 307 306 307
314 313 316 320 328 332 325 323 323 327 330 325 325 323 328 326 327 323 317 314 315 314 314 313 314 313 312 313 312 313 312 311 310 309 308 308 307 305 306 305 306 306 307 307
318 317 318 320 325 325 318 319 323 331 329 326 325 325 327 329 326 319 317 316 315 313 313 313 313 313 313 313 311 311 310 309 308 308 307 306 305 304 304 305 307 306 305 304
321 321 322 323 325 327 312 321 328 326 326 327 325 327 327 325 322 320 318 316 316 315 313 313 315 314 312 311 310 310 309 307 306 305 305 304 304 304 305 305 305 304 303 304
320 317 319 314 315 311 313 317 320 322 326 325 326 326 322 318 315 315 313 313 315 316 316 315 314 311 310 310 310 309 307 305 303 304 304 304 305 305 303 303 302 304 302 303
316 313 314 313 308 311 312 311 311 314 314 319 320 318 316 311 310 311 313 311 312 310 310 310 309 308 307 307 306 305 303 300 301 304 304 304 304 302 301 301 300 300 300 301
312 311 309 308 304 308 310 309 307 307 307 309 308 309 307 309 308 311 311 310 309 309 309 309 309 308 307 305 302 300 300 300 302 303 303 303 303 301 300 300 300 300 302 302
313 315 316 311 307 307 311 310 311 308 306 306 307 308 308 310 310 310 310 310 309 309 309 309 308 306 304 302 302 301 300 299 302 303 301 301 302 301 300 299 300 300 300 301
Wind_Speed
19 16 23 26 26 27 25 27 27 23 24 22 28 26 22 23 20 20 23 28 29 36 34 34 33 29 27 28 27 26 29 30 28 25 24 25 24 22 21 21 22 22 25 25
18 22 24 24 24 26 27 28 29 20 14 21 22 22 23 25 27 29 25 26 28 28 32 33 38 33 31 30 32 33 29 31 32 27 25 22 22 20 20 23 24 27 27 27
23 24 21 23 24 26 26 27 26 27 21 17 13 22 24 25 24 30 32 34 31 28 31 32 31 33 33 29 29 28 30 31 31 26 25 25 21 24 21 28 24 29 30 24
20 21 24 23 21 23 26 26 25 25 23 18 26 19 23 24 24 24 29 33 35 35 35 34 36 35 33 31 29 31 34 34 30 31 23 26 23 21 23 30 32 28 24 20
22 21 24 25 26 23 26 21 21 23 23 22 25 16 19 21 26 28 27 34 34 34 36 37 37 37 36 34 30 32 30 32 30 29 24 24 19 12 9 12 15 20 18 20
28 31 25 18 25 24 18 22 21 21 19 20 26 22 21 20 23 21 20 36 34 34 35 35 35 33 33 33 29 27 31 31 31 30 27 24 21 15 13 14 16 17 14 14
24 28 30 17 18 24 22 15 11 13 16 19 26 25 21 16 19 21 22 25 27 33 33 34 34 34 34 32 28 27 27 31 31 28 23 20 17 19 15 14 13 13 12 11
22 25 20 14 26 19 28 24 12 14 16 19 26 23 25 28 7 7 8 21 27 27 33 33 34 35 34 32 28 28 27 26 30 26 24 19 20 14 13 14 14 10 11 12
8 22 16 19 19 31 22 18 28 26 5 9 17 21 19 13 13 16 12 13 10 14 19 28 31 34 28 28 30 28 27 27 23 23 26 21 19 16 19 17 17 16 13 13
5 10 12 4 9 29 17 22 20 15 9 12 15 24 16 20 15 13 20 20 9 7 21 26 26 26 28 28 27 26 26 28 29 28 29 29 27 23 20 17 14 12 10 6
2 7 9 7 16 22 15 10 13 14 17 12 13 10 8 15 16 20 15 15 12 13 7 11 23 27 27 28 29 32 32 33 34 31 29 27 22 18 16 13 12 12 12 11
4 4 5 14 25 20 25 23 23 11 10 15 15 5 13 10 9 13 14 12 12 10 12 16 21 27 28 31 36 38 36 32 32 31 28 25 23 22 20 18 16 14 12 11
4 1 5 9 10 8 10 18 22 26 15 17 15 7 4 7 8 4 13 12 12 16 17 21 26 31 34 35 36 37 38 34 29 29 28 26 24 22 20 18 15 12 9 7
2 3 9 11 15 9 11 18 23 24 13 14 13 7 15 10 12 9 12 10 18 25 31 35 36 32 35 37 36 34 33 31 31 29 28 26 23 19 17 14 11 8 7 6
2 6 14 20 25 21 22 24 24 22 20 16 18 13 11 6 13 13 17 12 23 19 27 29 32 33 33 34 34 33 33 31 29 28 25 23 20 17 14 10 6 4 5 6
1 5 14 22 21 19 20 19 24 24 20 19 21 6 6 2 16 17 20 16 25 26 26 30 32 32 33 34 33 33 31 28 26 25 23 20 16 12 10 8 6 5 7 9
9 4 3 8 9 10 10 24 26 25 21 25 18 9 19 17 18 18 23 24 27 26 29 30 31 31 31 30 30 30 28 26 24 22 19 16 13 11 9 6 6 7 10 11
12 10 3 7 8 6 6 18 18 21 20 21 14 18 18 16 25 24 25 29 29 30 30 29 28 29 28 29 27 27 27 25 23 19 16 13 10 7 5 5 6 9 10 12
14 5 5 5 4 2 11 11 3 10 16 17 12 11 18 26 27 24 26 25 30 28 28 29 27 27 26 28 24 26 25 21 18 15 12 9 7 6 6 8 9 9 9 8
10 11 5 4 4 1 4 11 14 9 12 19 14 10 20 27 12 9 26 29 31 27 29 30 29 33 33 27 24 23 21 17 14 9 7 6 7 7 8 8 7 7 6 6
3 3 6 6 3 0 10 17 11 8 2 7 30 31 32 18 15 33 32 28 21 27 34 33 31 30 25 21 19 20 16 13 7 6 6 6 7 8 6 6 6 5 3 3
3 4 4 4 3 2 19 10 5 7 11 10 37 29 23 35 38 35 32 36 34 26 28 29 30 26 17 15 11 11 9 4 3 6 6 7 7 6 5 4 3 4 4 4
1 3 2 4 3 9 14 9 13 12 11 20 28 36 37 37 38 41 37 35 37 32 26 24 25 21 17 14 11 9 6 3 4 5 6 6 5 4 4 3 4 3 5 3
2 3 3 2 7 12 15 17 24 26 32 30 27 27 30 31 31 38 37 35 35 31 25 21 19 17 14 13 10 5 1 2 3 3 4 3 1 2 4 4 4 4 4 5
2 3 3 4 3 11 18 20 23 29 34 34 31 24 27 39 34 41 40 35 28 23 18 17 15 13 10 8 4 1 2 4 2 2 2 3 2 4 3 3 4 3 4 5
9 4 2 3 15 10 13 29 38 38 35 36 40 40 34 39 40 36 33 28 25 18 16 14 12 9 7 4 3 2 4 2 3 4 3 4 5 4 5 4 7 6 6 6
Wind_Direction
202 219 227 226 221 247 250 267 253 237 229 251 227 238 237 229 228 230 220 228 227 226 222 215 212 209 202 200 200 198 201 204 198 198 203 206 214 217 220 220 221 223 227 226
238 229 244 245 240 237 241 254 261 259 257 242 239 245 236 232 218 218 214 219 222 223 221 219 208 205 201 197 201 197 203 206 205 203 204 209 212 220 224 229 224 224 223 225
247 246 231 232 251 244 242 242 246 256 248 228 258 257 247 240 241 231 227 222 226 227 220 214 218 203 201 200 208 209 210 211 218 200 201 204 201 207 207 212 214 220 229 239
265 261 249 261 238 243 243 239 243 254 248 237 206 248 240 232 233 229 227 228 222 224 223 220 214 217 206 210 212 215 220 218 219 203 202 206 209 212 220 224 227 237 239 225
255 253 248 246 238 234 245 243 244 237 252 257 250 252 252 239 226 219 222 221 223 221 222 218 219 213 213 209 210 216 215 214 206 214 199 210 199 205 211 218 218 214 218 217
270 269 267 251 280 245 232 238 241 239 230 235 238 241 244 239 228 230 217 215 217 218 221 218 216 216 211 210 206 208 214 210 200 208 194 206 191 190 192 202 208 204 210 205
262 257 250 245 230 258 209 211 228 226 222 234 228 228 238 261 226 224 215 210 213 213 218 217 213 211 211 210 203 193 193 190 187 189 185 197 182 192 183 179 186 184 194 203
262 261 236 243 250 238 211 210 212 209 220 227 223 227 227 232 207 303 254 210 216 213 212 213 213 212 205 201 197 190 181 173 182 177 179 172 192 168 165 163 185 193 184 186
272 254 226 231 230 227 214 206 217 237 263 296 224 208 236 215 209 205 214 216 206 222 225 222 211 202 194 189 190 180 172 179 168 165 167 165 146 160 171 169 170 175 190 210
309 287 236 290 303 272 188 231 215 239 222 229 230 202 208 193 195 212 209 214 169 219 215 209 197 186 183 177 168 160 166 158 160 155 156 154 161 168 175 175 178 181 190 196
150 263 294 220 195 216 193 198 253 242 245 251 254 221 343 164 195 186 205 135 145 192 102 100 146 149 147 148 152 155 150 154 153 153 150 150 147 156 149 136 126 120 117 103
87 275 285 297 288 315 211 222 186 236 224 240 267 14 339 69 110 94 85 106 124 142 138 120 117 130 138 142 143 148 147 144 134 129 122 121 118 117 117 116 113 110 104 97
5 281 302 308 225 265 262 232 240 215 229 228 242 172 337 106 108 91 119 121 147 154 140 142 143 146 145 139 134 132 130 123 124 120 117 115 114 114 112 112 106 97 89 79
330 257 255 275 294 335 249 232 221 235 218 225 241 189 169 154 136 135 127 152 161 148 150 147 145 142 129 124 122 123 123 122 120 118 117 114 111 111 108 103 98 90 75 59
51 261 267 279 282 270 246 255 212 228 222 230 245 296 170 113 140 134 140 155 144 132 130 130 128 129 125 122 121 121 120 121 119 116 112 108 107 104 101 95 84 47 10 357
202 274 306 295 283 254 250 253 204 218 227 227 245 206 331 254 135 128 128 134 122 122 136 126 122 124 122 121 121 119 117 116 114 109 107 105 101 96 89 77 53 17 353 335
281 279 304 278 216 215 249 234 197 204 208 225 233 132 169 153 139 137 131 128 124 122 119 113 116 119 120 119 119 116 113 111 106 104 102 101 98 89 75 52 24 349 333 321
248 257 257 256 161 161 113 196 205 203 215 221 231 136 145 138 128 133 132 130 126 119 119 119 120 119 117 115 112 110 110 105 104 104 103 101 96 77 48 15 348 332 327 323
222 227 269 314 311 213 98 22 215 216 221 213 208 92 115 125 122 106 111 116 115 121 124 122 121 114 112 108 109 110 101 101 101 98 90 79 64 46 10 349 332 333 330 336
205 215 274 321 311 276 25 354 342 321 223 199 150 118 133 143 135 128 126 120 120 122 126 124 118 118 108 105 104 101 97 97 90 95 90 59 27 4 352 334 343 351 5 1
170 200 238 266 282 263 352 329 311 189 200 166 132 162 158 165 145 141 137 124 121 133 125 122 117 112 107 111 116 116 106 99 94 68 41 27 2 356 353 3 20 17 355 355
174 200 207 213 250 232 349 331 337 354 315 289 136 175 148 117 133 140 134 136 146 144 132 126 108 105 115 114 112 119 113 94 41 24 7 0 1 15 19 18 13 25 56 9
240 340 64 24 17 311 322 314 19 37 45 79 111 123 120 118 117 124 125 136 144 146 141 128 130 130 129 133 132 115 119 95 11 357 357 11 23 45 60 65 76 31 34 39
17 69 80 166 342 16 19 48 56 65 70 86 100 102 116 114 121 128 140 133 132 125 124 133 135 135 132 143 137 137 144 294 349 6 16 41 166 72 93 84 68 70 56 54
4 51 105 89 241 1 42 70 78 74 83 91 91 100 111 122 115 128 127 121 113 117 128 130 133 130 126 122 130 212 335 334 34 72 96 114 107 111 69 167 137 93 74 79
342 332 73 86 72 80 74 76 80 82 84 91 102 102 98 109 114 118 120 122 124 126 134 134 132 128 121 119 87 21 322 354 118 120 121 137 116 120 141 93 86 66 49 39